TimeMST,TemperatureF,Dew PointF,Humidity,Sea Level PressureIn,VisibilityMPH,Wind Direction,Wind SpeedMPH,Gust SpeedMPH,PrecipitationIn,Events,Conditions,WindDirDegrees,DateUTC
12:15 AM,44.6,33.8,66,29.98,10.0,SE,3.5,-,N/A,,Mostly Cloudy,130,2012-11-17 07:15:00
12:35 AM,44.6,33.8,66,29.98,10.0,South,3.5,-,N/A,,Partly Cloudy,180,2012-11-17 07:35:00
12:55 AM,44.6,32.0,61,29.97,10.0,South,6.9,-,N/A,,Mostly Cloudy,170,2012-11-17 07:55:00
1:15 AM,44.6,32.0,61,29.97,10.0,South,10.4,-,N/A,,Mostly Cloudy,170,2012-11-17 08:15:00
1:35 AM,44.6,30.2,57,29.96,10.0,SSE,11.5,-,N/A,,Mostly Cloudy,150,2012-11-17 08:35:00
1:55 AM,44.6,30.2,57,29.96,10.0,SE,10.4,-,N/A,,Clear,140,2012-11-17 08:55:00
2:15 AM,42.8,30.2,61,29.95,10.0,SE,9.2,-,N/A,,Clear,140,2012-11-17 09:15:00
2:35 AM,42.8,30.2,61,29.96,10.0,SE,8.1,-,N/A,,Mostly Cloudy,140,2012-11-17 09:35:00
2:55 AM,42.8,30.2,61,29.96,10.0,Calm,Calm,-,N/A,,Overcast,0,2012-11-17 09:55:00
3:15 AM,41.0,30.2,65,29.96,10.0,Calm,Calm,-,N/A,,Mostly Cloudy,0,2012-11-17 10:15:00
3:35 AM,42.8,30.2,61,29.96,10.0,SSE,11.5,-,N/A,,Clear,150,2012-11-17 10:35:00
3:55 AM,42.8,30.2,61,29.94,10.0,South,8.1,-,N/A,,Clear,180,2012-11-17 10:55:00
4:15 AM,42.8,30.2,61,29.94,10.0,South,6.9,-,N/A,,Partly Cloudy,180,2012-11-17 11:15:00
4:35 AM,44.6,30.2,57,29.94,10.0,South,10.4,-,N/A,,Mostly Cloudy,170,2012-11-17 11:35:00
4:55 AM,44.6,30.2,57,29.94,10.0,SSE,10.4,-,N/A,,Mostly Cloudy,160,2012-11-17 11:55:00
5:15 AM,44.6,30.2,57,29.93,10.0,SE,9.2,-,N/A,,Partly Cloudy,140,2012-11-17 12:15:00
5:35 AM,42.8,30.2,61,29.92,10.0,SE,11.5,-,N/A,,Partly Cloudy,140,2012-11-17 12:35:00
5:55 AM,42.8,30.2,61,29.92,10.0,SE,10.4,-,N/A,,Clear,140,2012-11-17 12:55:00
6:15 AM,44.6,30.2,57,29.92,10.0,South,8.1,-,N/A,,Clear,170,2012-11-17 13:15:00
6:35 AM,42.8,30.2,61,29.92,10.0,SSE,11.5,-,N/A,,Clear,160,2012-11-17 13:35:00
7:15 AM,44.6,30.2,57,29.92,10.0,South,15.0,-,N/A,,Overcast,170,2012-11-17 14:15:00
7:35 AM,44.6,30.2,57,29.92,10.0,SSE,12.7,-,N/A,,Overcast,160,2012-11-17 14:35:00
7:55 AM,44.6,30.2,57,29.91,10.0,SSE,13.8,-,N/A,,Overcast,160,2012-11-17 14:55:00
8:15 AM,44.6,30.2,57,29.91,10.0,SSE,16.1,19.6,N/A,,Overcast,160,2012-11-17 15:15:00
8:35 AM,44.6,30.2,57,29.90,10.0,SSE,15.0,-,N/A,,Overcast,160,2012-11-17 15:35:00
8:55 AM,46.4,30.2,53,29.91,10.0,South,15.0,21.9,N/A,,Overcast,170,2012-11-17 15:55:00
9:15 AM,46.4,30.2,53,29.91,10.0,South,15.0,-,N/A,,Overcast,170,2012-11-17 16:15:00
9:35 AM,46.4,30.2,53,29.90,10.0,South,16.1,-,N/A,,Overcast,170,2012-11-17 16:35:00
9:55 AM,46.4,32.0,57,29.90,10.0,South,17.3,-,N/A,,Overcast,170,2012-11-17 16:55:00
10:15 AM,48.2,32.0,54,29.89,10.0,SSE,15.0,-,N/A,,Overcast,160,2012-11-17 17:15:00
10:35 AM,48.2,33.8,58,29.89,10.0,South,12.7,-,N/A,,Overcast,170,2012-11-17 17:35:00
10:55 AM,48.2,33.8,58,29.88,10.0,South,18.4,-,N/A,,Overcast,170,2012-11-17 17:55:00
11:15 AM,48.2,33.8,58,29.88,10.0,South,12.7,-,N/A,,Overcast,170,2012-11-17 18:15:00
11:35 AM,48.2,33.8,58,29.86,10.0,SSE,16.1,-,N/A,,Overcast,160,2012-11-17 18:35:00
11:55 AM,48.2,35.6,62,29.85,10.0,South,11.5,-,N/A,,Overcast,170,2012-11-17 18:55:00
12:15 PM,50.0,35.6,58,29.84,10.0,South,13.8,-,N/A,,Overcast,170,2012-11-17 19:15:00
12:35 PM,51.8,33.8,50,29.82,10.0,SSE,15.0,-,N/A,,Overcast,160,2012-11-17 19:35:00
12:55 PM,51.8,35.6,54,29.81,10.0,SSE,13.8,19.6,N/A,,Overcast,160,2012-11-17 19:55:00
1:15 PM,51.8,35.6,54,29.80,10.0,South,13.8,-,N/A,,Overcast,170,2012-11-17 20:15:00
1:35 PM,53.6,33.8,47,29.80,10.0,SSE,16.1,-,N/A,,Overcast,160,2012-11-17 20:35:00
1:55 PM,53.6,35.6,51,29.79,10.0,SSE,13.8,-,N/A,,Overcast,160,2012-11-17 20:55:00
2:15 PM,55.4,35.6,47,29.78,10.0,SSE,18.4,-,N/A,,Overcast,150,2012-11-17 21:15:00
2:55 PM,57.2,37.4,48,29.76,10.0,SSE,21.9,27.6,N/A,,Overcast,150,2012-11-17 21:55:00
3:15 PM,57.2,37.4,48,29.75,10.0,SE,19.6,27.6,N/A,,Mostly Cloudy,140,2012-11-17 22:15:00
3:35 PM,57.2,37.4,48,29.75,10.0,SE,21.9,26.5,N/A,,Mostly Cloudy,140,2012-11-17 22:35:00
3:55 PM,55.4,37.4,51,29.74,10.0,SE,23.0,29.9,N/A,,Overcast,140,2012-11-17 22:55:00
4:15 PM,55.4,37.4,51,29.73,10.0,SE,20.7,27.6,N/A,,Overcast,140,2012-11-17 23:15:00
4:35 PM,55.4,37.4,51,29.74,10.0,SE,21.9,26.5,N/A,,Overcast,140,2012-11-17 23:35:00
4:55 PM,55.4,37.4,51,29.75,10.0,SSE,17.3,-,N/A,,Overcast,160,2012-11-17 23:55:00
5:15 PM,53.6,39.2,58,29.76,10.0,South,16.1,-,N/A,,Overcast,190,2012-11-18 00:15:00
5:35 PM,51.8,41.0,67,29.77,10.0,South,13.8,-,0.03,,Overcast,190,2012-11-18 00:35:00
5:55 PM,50.0,41.0,71,29.76,9.0,SSE,11.5,-,0.05,,Overcast,160,2012-11-18 00:55:00
6:15 PM,50.0,41.0,71,29.75,10.0,SE,10.4,-,0.02,,Overcast,140,2012-11-18 01:15:00
6:35 PM,50.0,42.8,76,29.75,10.0,SE,11.5,-,0.02,,Overcast,130,2012-11-18 01:35:00
6:55 PM,50.0,41.0,71,29.73,10.0,SE,11.5,-,0.02,,Overcast,130,2012-11-18 01:55:00
7:15 PM,50.0,42.8,76,29.73,10.0,SE,9.2,-,N/A,,Overcast,130,2012-11-18 02:15:00
7:35 PM,50.0,41.0,71,29.73,10.0,SE,8.1,-,N/A,,Mostly Cloudy,130,2012-11-18 02:35:00
7:55 PM,48.2,39.2,71,29.73,10.0,ESE,5.8,-,N/A,,Scattered Clouds,110,2012-11-18 02:55:00
8:35 PM,46.4,39.2,76,29.73,10.0,SSE,6.9,-,N/A,,Partly Cloudy,150,2012-11-18 03:35:00
8:55 PM,48.2,39.2,71,29.72,10.0,ESE,9.2,-,N/A,,Clear,120,2012-11-18 03:55:00
9:15 PM,46.4,39.2,76,29.72,10.0,ESE,8.1,-,N/A,,Clear,120,2012-11-18 04:15:00
9:35 PM,46.4,39.2,76,29.72,10.0,ESE,12.7,-,N/A,,Clear,110,2012-11-18 04:35:00
9:55 PM,46.4,39.2,76,29.72,10.0,SE,9.2,-,N/A,,Partly Cloudy,140,2012-11-18 04:55:00
10:15 PM,48.2,39.2,71,29.72,10.0,SSE,9.2,-,N/A,,Partly Cloudy,160,2012-11-18 05:15:00
10:35 PM,50.0,39.2,66,29.72,10.0,SE,9.2,-,N/A,,Partly Cloudy,140,2012-11-18 05:35:00
10:55 PM,48.2,39.2,71,29.72,10.0,SSE,6.9,-,N/A,,Clear,150,2012-11-18 05:55:00
11:15 PM,50.0,39.2,66,29.72,10.0,SSE,11.5,-,N/A,,Mostly Cloudy,150,2012-11-18 06:15:00
11:35 PM,51.8,39.2,62,29.73,10.0,SSE,12.7,-,N/A,,Overcast,150,2012-11-18 06:35:00
11:55 PM,51.8,39.2,62,29.73,10.0,SSE,10.4,-,N/A,,Overcast,160,2012-11-18 06:55:00